Wind_Speed
27 29 31 35 36 30 33 42 43 53 53 49 48 42 38 32 26 20 18 20 24 25 27 26 26 27 24 25 24 22 19 21 26 22 27 26 26 25 25 23 23 22 22 19
28 27 29 35 34 34 35 36 39 40 46 35 31 26 27 24 18 16 18 20 23 24 25 25 26 28 24 21 23 20 18 18 24 29 17 30 31 25 27 28 22 16 16 13
19 16 24 23 14 17 26 26 27 31 30 29 30 26 24 17 15 16 18 20 24 27 29 27 28 28 24 23 19 20 17 18 19 26 24 26 20 25 21 22 21 22 21 24
24 20 11 6 19 26 29 26 24 24 26 25 23 26 23 18 14 15 19 22 26 28 30 27 28 28 25 24 17 16 17 19 25 28 26 25 29 20 21 22 23 18 17 21
10 16 31 26 15 19 23 28 24 24 25 28 28 25 14 9 9 17 22 23 27 32 29 29 28 29 27 21 19 16 14 22 28 27 28 28 31 27 22 22 21 23 26 24
17 19 13 18 21 16 18 36 19 20 19 19 14 13 14 15 18 24 27 25 31 30 30 30 30 29 29 22 18 17 16 22 28 28 26 26 25 25 25 23 25 20 19 18
24 27 27 26 25 19 19 29 21 22 22 23 26 25 29 31 32 30 27 27 33 30 30 29 31 30 30 18 16 13 17 20 25 22 20 21 21 17 18 19 15 11 11 14
20 24 22 15 24 26 34 38 32 30 28 28 31 34 35 33 32 29 27 26 31 31 30 27 29 31 25 15 14 14 17 16 17 16 16 15 15 11 9 7 11 13 14 16
21 27 39 45 46 51 53 57 56 48 43 38 35 32 30 30 26 23 23 26 29 29 28 26 27 28 18 14 13 14 11 11 13 11 8 7 5 7 12 12 12 15 17 19
32 34 43 50 59 62 56 51 54 54 47 44 37 26 25 24 20 20 22 25 26 26 27 25 26 19 16 12 8 8 9 8 9 7 4 9 10 8 8 10 11 14 17 19
35 42 60 56 51 54 54 48 44 46 41 41 38 32 21 20 19 26 26 27 23 23 23 24 22 13 11 5 8 7 7 7 5 7 9 7 5 7 8 10 11 14 17 19
50 52 48 52 57 50 48 42 36 33 31 39 37 30 17 20 20 24 25 22 20 21 21 21 15 9 9 9 9 8 5 7 11 10 4 4 6 8 10 12 15 17 21 24
47 46 39 47 52 45 45 36 28 23 21 28 25 25 18 20 20 19 19 17 18 18 18 13 8 8 9 8 8 7 12 11 5 4 6 8 9 11 14 17 20 22 23 23
41 36 36 40 50 42 41 35 16 4 10 12 26 24 18 15 16 13 12 14 15 16 11 5 5 6 7 9 14 15 7 4 6 7 9 12 14 17 20 20 21 21 22 24
28 23 29 35 34 32 36 39 26 18 12 6 13 10 12 10 7 8 10 14 13 7 5 5 7 8 14 18 11 7 8 8 10 11 12 15 17 17 18 19 20 22 24 26
25 18 21 24 30 29 28 27 26 22 19 13 9 7 5 6 5 7 10 8 4 7 7 7 12 17 16 12 11 11 9 10 12 14 17 17 17 18 19 20 23 25 24 24
23 9 11 19 24 25 24 23 23 21 19 15 12 8 4 3 6 7 5 12 11 9 13 20 17 13 14 14 13 11 11 14 15 16 17 17 17 20 25 25 24 24 25 26
25 16 17 17 17 18 19 18 15 13 9 9 6 2 2 2 3 13 15 13 12 18 24 17 14 16 15 14 14 13 14 16 17 17 18 21 24 24 23 25 26 25 25 27
21 13 10 10 9 10 10 10 9 7 5 5 3 3 11 17 17 16 15 19 23 19 17 18 18 16 15 15 15 16 18 17 16 20 25 25 23 24 24 24 25 26 28 29
19 19 14 10 8 8 9 9 10 8 12 15 18 21 21 21 21 22 18 16 18 17 18 19 18 16 15 16 17 17 18 21 22 22 22 23 23 23 24 26 28 28 28 29
16 17 19 20 17 17 19 21 19 18 22 21 18 19 19 21 19 16 16 14 19 18 18 18 18 16 17 17 18 19 20 21 21 21 21 22 24 25 26 28 28 26 26 28
14 18 18 17 16 16 20 22 21 20 21 19 19 21 14 12 15 16 17 14 17 18 17 17 17 17 18 20 19 19 19 19 19 21 23 25 25 27 27 25 26 27 28 30
8 9 12 14 15 16 18 19 18 18 16 15 13 13 12 12 16 16 14 15 16 17 16 16 17 18 19 17 18 18 18 20 22 24 25 27 28 26 25 25 26 27 29 31
6 7 8 8 9 10 10 11 11 11 11 10 11 13 14 13 14 16 14 13 15 16 15 15 15 16 16 16 17 19 20 22 24 26 27 28 27 26 24 23 24 27 29 30
6 6 7 7 7 7 8 8 9 9 9 8 8 9 11 13 13 12 12 13 13 15 13 12 13 15 16 16 18 20 22 24 25 26 27 26 25 25 23 23 24 26 29 30
3 4 5 5 6 6 6 5 7 7 8 8 7 7 10 11 12 11 11 11 11 12 12 11 12 13 14 16 18 21 22 24 26 26 24 24 25 25 24 23 23 24 27 30
1 2 3 3 4 3 3 3 5 6 6 8 8 7 8 9 11 10 10 10 10 10 11 10 10 12 13 15 18 20 21 23 24 23 23 24 24 25 24 23 22 24 25 28
Wind_Direction
282 284 286 284 288 290 279 272 268 275 279 282 286 290 292 295 292 287 301 316 326 316 313 317 311 307 303 278 277 278 273 278 284 290 303 272 271 272 269 243 218 211 200 194
292 289 285 288 289 288 282 285 285 284 285 295 297 295 295 292 290 295 307 320 319 315 321 323 326 324 320 298 276 275 277 277 279 284 327 321 289 256 260 262 218 218 234 237
289 295 298 293 291 288 291 284 285 290 294 296 300 299 293 290 291 298 315 321 320 312 322 324 327 331 327 317 286 271 266 288 284 280 315 308 261 276 240 233 233 260 272 284
284 303 270 258 290 292 286 293 292 288 290 295 294 297 296 282 288 301 315 319 319 316 313 319 324 330 332 323 307 279 270 278 275 274 282 280 286 269 258 261 257 257 266 270
263 279 287 301 301 294 291 287 283 292 292 297 294 280 274 238 313 320 320 317 315 319 317 316 321 330 328 316 320 310 289 290 276 267 274 277 285 270 268 277 266 272 275 276
267 286 282 291 303 299 287 281 301 288 288 287 289 274 254 305 300 312 316 310 308 316 315 315 321 323 328 313 304 317 316 292 276 272 273 269 271 276 280 278 267 286 288 281
267 267 277 297 299 292 270 288 297 290 283 279 275 276 276 289 299 307 307 304 303 308 313 311 323 324 327 302 299 320 323 292 281 278 283 289 291 290 283 274 277 284 300 316
274 275 279 318 304 285 282 284 281 280 279 275 274 277 282 286 292 300 300 296 295 296 306 307 322 325 326 304 309 317 306 284 275 280 280 278 271 271 275 308 355 344 323 316
272 273 288 298 297 295 289 282 287 289 281 270 272 274 278 280 285 289 293 294 292 295 298 305 320 320 326 328 325 312 278 272 268 253 244 243 266 22 16 4 334 326 324 318
298 308 306 305 304 302 292 283 276 274 277 281 275 266 272 274 278 277 278 286 295 294 295 305 315 318 326 335 314 276 265 258 250 230 97 48 33 6 339 332 327 325 325 323
306 315 316 324 324 317 308 298 285 270 260 251 266 272 258 264 262 261 273 284 295 293 296 306 312 311 312 290 265 256 246 229 185 85 64 43 4 332 336 340 339 338 329 329
321 331 323 331 334 331 319 302 287 280 261 242 245 261 243 250 256 267 268 280 288 291 302 306 308 298 264 257 263 242 179 106 74 54 25 18 12 3 353 349 352 348 348 348
330 332 336 340 347 344 339 319 289 277 244 236 214 229 229 255 263 268 269 273 282 298 300 306 299 266 255 264 242 148 84 66 61 54 42 36 21 9 6 5 2 359 358 357
334 332 344 355 356 5 9 9 0 321 218 223 214 227 243 251 264 264 257 272 286 293 292 277 267 241 222 179 106 77 78 90 77 59 44 34 22 17 12 8 5 0 359 2
338 343 353 0 2 15 26 29 44 76 89 116 176 195 221 243 235 231 256 274 286 269 209 209 206 186 138 98 97 111 98 83 66 53 44 36 26 18 14 9 5 4 3 359
349 354 2 9 15 21 28 44 56 62 74 100 134 147 169 180 211 258 275 275 174 158 168 171 151 120 101 116 103 90 80 73 61 48 39 31 24 18 12 9 7 3 357 354
355 347 7 26 27 25 33 41 52 65 73 84 98 112 131 213 247 248 194 136 132 148 151 128 108 120 118 106 97 86 75 63 53 44 35 29 22 16 12 7 3 1 0 359
355 355 10 21 19 26 30 43 51 58 56 54 68 101 229 245 130 120 118 120 145 150 117 116 128 117 110 101 90 80 68 58 49 40 34 28 23 17 13 10 7 5 5 5
8 4 352 3 10 25 19 20 24 19 29 32 30 94 109 110 113 116 123 137 122 115 123 125 117 108 99 91 82 71 60 53 48 39 32 26 19 16 14 13 14 14 12 9
24 33 30 15 5 5 7 12 18 41 77 88 103 108 112 113 113 115 113 118 121 125 123 115 106 99 94 84 75 67 57 48 42 35 29 24 21 20 21 22 19 16 13 10
33 40 45 54 61 70 77 77 76 84 94 98 99 103 109 118 115 116 110 120 123 123 117 108 102 96 86 78 69 60 53 46 39 34 30 28 27 27 25 24 20 16 14 13
45 52 55 58 64 75 85 92 96 93 90 93 104 105 102 111 111 109 115 127 124 119 113 108 102 95 82 70 63 57 51 46 42 38 35 32 30 28 26 24 21 18 17 17
38 51 59 63 69 78 88 92 92 95 98 100 99 99 103 115 118 119 125 130 125 117 111 105 94 83 76 70 63 57 51 46 42 38 35 32 29 27 26 25 22 20 20 19
52 52 63 73 77 79 77 78 80 84 89 97 107 112 114 113 117 122 130 133 124 111 99 95 92 86 78 69 61 54 49 45 41 37 34 31 26 25 26 24 22 23 22 21
57 62 70 77 81 82 82 83 81 81 85 90 102 115 121 122 123 130 134 130 122 110 105 103 96 84 74 65 58 51 47 42 39 36 32 28 26 27 25 24 23 24 23 22
45 51 61 69 75 78 83 85 90 93 99 100 103 119 126 126 126 135 135 128 120 117 112 99 87 79 70 62 55 50 45 40 37 34 29 28 28 27 25 24 24 24 24 23
24 25 26 39 59 70 73 78 89 98 109 119 123 131 133 132 134 140 138 136 131 117 106 100 89 77 67 59 53 47 42 39 35 32 30 30 29 27 26 25 26 26 25 24
Height
3119 3114 3111 3104 3102 3103 3099 3091 3087 3072 3069 3068 3063 3062 3056 3052 3049 3047 3045 3041 3036 3032 3027 3023 3018 3014 3011 3009 3008 3008 3007 3007 3006 3000 2998 2993 2995 2994 2992 2991 2990 2991 2992 2991
3108 3106 3101 3094 3093 3091 3084 3080 3075 3071 3061 3064 3058 3054 3050 3047 3044 3042 3040 3035 3031 3026 3022 3018 3013 3008 3005 3002 3000 3000 2999 2999 2998 2996 2992 2994 2989 2987 2985 2985 2986 2988 2989 2988
3098 3097 3094 3090 3081 3078 3073 3069 3067 3061 3059 3056 3052 3049 3046 3041 3040 3037 3034 3030 3026 3022 3018 3014 3009 3004 3000 2996 2994 2993 2992 2991 2991 2990 2987 2985 2983 2981 2980 2979 2981 2983 2982 2981
3097 3095 3083 3077 3074 3070 3064 3063 3059 3054 3053 3050 3047 3043 3040 3038 3035 3033 3030 3026 3023 3019 3015 3011 3006 3001 2997 2993 2989 2988 2987 2987 2986 2987 2985 2981 2979 2978 2975 2974 2975 2976 2977 2978
3099 3089 3073 3068 3065 3064 3058 3051 3052 3048 3045 3043 3038 3035 3033 3031 3030 3027 3025 3022 3018 3014 3010 3006 3002 2998 2993 2990 2986 2984 2983 2983 2982 2981 2980 2980 2976 2974 2973 2972 2973 2973 2973 2974
3094 3087 3071 3059 3059 3056 3051 3040 3044 3041 3038 3036 3034 3031 3030 3023 3022 3021 3020 3017 3013 3010 3005 3002 2999 2994 2989 2986 2983 2981 2979 2980 2980 2979 2978 2976 2975 2974 2971 2971 2971 2971 2970 2970
3087 3080 3063 3055 3053 3051 3047 3040 3037 3034 3031 3030 3028 3026 3023 3020 3017 3016 3014 3012 3007 3005 3001 2998 2994 2990 2985 2981 2979 2977 2976 2976 2976 2976 2975 2974 2972 2970 2969 2968 2967 2967 2968 2967
3076 3072 3060 3051 3048 3046 3036 3027 3025 3022 3021 3019 3017 3016 3014 3012 3010 3009 3006 3004 3002 2999 2997 2994 2991 2985 2980 2977 2975 2974 2973 2973 2973 2973 2972 2970 2969 2969 2968 2967 2965 2967 2965 2964
3072 3057 3048 3043 3036 3026 3020 3010 3003 3004 3004 3003 3003 3003 3004 3003 3003 3002 3000 2997 2995 2994 2992 2990 2987 2982 2977 2975 2973 2972 2971 2970 2970 2969 2969 2968 2968 2966 2966 2966 2965 2964 2962 2960
3058 3046 3039 3030 3018 3009 2999 2991 2986 2984 2985 2987 2989 2993 2994 2995 2995 2996 2993 2992 2990 2989 2987 2986 2982 2979 2976 2973 2972 2972 2971 2970 2969 2968 2966 2966 2967 2968 2967 2965 2964 2962 2959 2956
3050 3042 3019 3018 3006 2990 2976 2967 2962 2962 2965 2969 2975 2980 2984 2986 2988 2986 2986 2987 2986 2985 2983 2981 2978 2976 2974 2972 2972 2972 2971 2969 2968 2967 2968 2968 2968 2967 2965 2963 2962 2959 2956 2953
3035 3030 3017 3003 2988 2972 2956 2945 2941 2941 2943 2953 2963 2970 2975 2977 2979 2979 2981 2982 2982 2980 2979 2977 2975 2974 2973 2972 2972 2972 2970 2968 2968 2969 2970 2969 2967 2966 2964 2962 2959 2955 2950 2947
3032 3021 3013 2998 2981 2964 2944 2928 2925 2928 2934 2941 2953 2962 2968 2971 2972 2975 2977 2978 2978 2977 2976 2974 2973 2973 2973 2972 2972 2970 2970 2971 2972 2971 2970 2968 2967 2965 2962 2958 2955 2951 2949 2947
3028 3013 3007 2996 2979 2963 2948 2933 2923 2924 2931 2939 2950 2958 2964 2967 2969 2971 2973 2974 2975 2973 2972 2973 2973 2974 2973 2973 2972 2973 2974 2974 2973 2972 2971 2968 2966 2962 2959 2958 2955 2953 2949 2944
3025 3016 3005 2996 2987 2973 2959 2948 2938 2937 2941 2945 2952 2959 2962 2965 2968 2970 2971 2972 2971 2971 2972 2973 2974 2975 2975 2975 2977 2978 2977 2976 2974 2973 2971 2967 2965 2964 2962 2959 2956 2952 2947 2942
3018 3012 3006 2999 2989 2980 2971 2962 2957 2954 2953 2955 2959 2962 2965 2967 2969 2970 2970 2970 2970 2971 2973 2975 2976 2977 2977 2978 2978 2978 2979 2977 2976 2973 2971 2969 2968 2965 2962 2959 2954 2950 2947 2943
3016 3013 3006 2998 2991 2986 2979 2973 2968 2965 2965 2965 2966 2967 2968 2969 2969 2968 2968 2970 2973 2975 2976 2977 2979 2980 2981 2981 2982 2982 2981 2979 2977 2975 2973 2971 2969 2965 2959 2957 2954 2950 2945 2940
3010 3004 3000 2995 2993 2989 2986 2980 2977 2975 2973 2971 2971 2970 2970 2969 2969 2970 2972 2974 2977 2978 2979 2981 2983 2984 2985 2985 2984 2984 2982 2981 2979 2978 2975 2971 2967 2964 2961 2956 2953 2950 2945 2939
3010 3004 3000 2997 2994 2991 2988 2984 2980 2978 2976 2974 2973 2972 2972 2973 2974 2976 2977 2980 2982 2984 2985 2986 2987 2988 2988 2988 2987 2986 2984 2983 2982 2977 2972 2971 2970 2965 2962 2959 2954 2948 2942 2937
3012 3005 3000 2997 2994 2991 2989 2986 2983 2981 2978 2978 2978 2978 2978 2979 2981 2984 2985 2987 2987 2989 2990 2991 2991 2992 2992 2991 2990 2989 2987 2983 2981 2980 2977 2974 2971 2968 2963 2957 2952 2948 2944 2939
3013 3008 3004 3001 2997 2993 2991 2989 2990 2989 2986 2986 2986 2986 2987 2988 2989 2989 2990 2992 2993 2994 2995 2995 2995 2996 2996 2995 2993 2991 2989 2987 2985 2983 2981 2977 2971 2966 2963 2958 2954 2951 2947 2941
3017 3013 3009 3006 3003 3000 2997 2995 2995 2994 2993 2994 2994 2994 2995 2995 2995 2995 2996 2999 2998 2999 2999 3000 3000 3000 2999 2997 2996 2995 2993 2992 2990 2986 2980 2976 2972 2967 2964 2962 2958 2953 2948 2942
3019 3016 3014 3012 3009 3007 3004 3002 3001 2999 2999 2999 3000 3001 3001 3001 3000 3001 3003 3004 3004 3003 3004 3004 3004 3002 3002 3002 3001 2999 2997 2994 2990 2986 2982 2977 2973 2970 2967 2963 2960 2955 2949 2944
3020 3019 3017 3015 3013 3011 3010 3008 3006 3005 3004 3004 3003 3003 3004 3005 3005 3005 3007 3008 3008 3008 3008 3009 3009 3008 3007 3006 3004 3002 2998 2995 2990 2987 2984 2979 2976 2973 2969 2966 2962 2957 2952 2946
3022 3020 3019 3018 3016 3015 3013 3011 3010 3009 3008 3008 3007 3007 3007 3007 3009 3010 3011 3011 3012 3011 3012 3013 3013 3011 3010 3009 3006 3003 2999 2996 2993 2990 2986 2984 2980 2975 2971 2967 2963 2959 2954 2949
3023 3022 3020 3019 3018 3017 3016 3015 3013 3012 3011 3010 3011 3011 3011 3011 3012 3013 3014 3015 3015 3016 3016 3016 3015 3014 3013 3011 3008 3004 3002 2999 2996 2994 2992 2987 2982 2978 2973 2969 2965 2961 2957 2952
3023 3022 3021 3020 3019 3018 3017 3016 3015 3014 3014 3014 3014 3014 3014 3015 3015 3016 3017 3018 3018 3018 3018 3018 3018 3016 3015 3012 3010 3007 3005 3003 3000 2997 2994 2989 2985 2980 2976 2972 2968 2963 2959 2955